Home > Weather > Marrakech > Past weeks

Flag for Morocco Past Weather in Marrakech, Morocco — Yesterday and Last 2 Weeks

Now
70 °F

Clear.


Feels Like: 70 °F
Forecast: 77 / 109 °F
Wind: 8 mph from Southwest

Location: Marrakech Airport

Current Time: Jul 29, 2016 at 5:19:36 AM

Latest Report: Jul 29, 2016 at 5:00 AM


Visibility: 10 mi

Pressure: 29.95 "Hg

Humidity: 64%

Dew Point: 57 °F

Location of MarrakechLocation

Past Weather in Marrakech — Graph

°F

Marrakech Temperature Yesterday

Maximum temperature yesterday: 97 °F (at 6:00 PM)
Minimum temperature yesterday: 68 °F (at 7:30 AM)
Average temperature yesterday: 82 °F

High & Low Weather Summary for the Past Weeks

 TemperatureHumidityPressure
High113 °F (Jul 19, 3:00 PM)73% (Jul 28, 7:30 AM)30.12 "Hg (Jul 28, 7:30 AM)
Low68 °F (Jul 28, 7:30 AM)5% (Jul 15, 5:30 PM)29.83 "Hg (Jul 15, 4:00 PM)
Average90 °F27%29.96 "Hg
* Reported Jul 14 4:00 AM — Jul 29 4:00 AM, Marrakech, Weather by CustomWeather, © 2016

Note: Actual official high and low records may vary slightly from our data, if they occured in-between our weather recording intervals... More about our weather records

Advertising

Marrakech Weather History for the Previous 24 Hours

Scroll right to see more
 ConditionsComfort  
Time TempWeatherWind HumidityBarometerVisibility
4:00 AM
Fri, Jul 29
72 °FClear.7 mph61%29.95 "Hg10 mi
3:30 AM72 °FMild.7 mph61%29.95 "HgN/A
3:00 AM73 °FClear.8 mph57%29.95 "Hg10 mi
2:30 AM73 °FClear.9 mph57%29.95 "Hg10 mi
2:00 AM73 °FClear.9 mph57%29.95 "Hg10 mi
1:30 AM75 °FClear.9 mph54%29.95 "Hg10 mi
1:00 AM77 °FClear.9 mph51%29.95 "Hg10 mi
12:30 AM79 °FClear.12 mph48%29.95 "Hg10 mi
12:00 AM81 °FClear.7 mph42%29.95 "Hg10 mi
11:30 PM
Thu, Jul 28
81 °FClear.6 mph42%29.95 "Hg10 mi
11:00 PM81 °FPassing clouds.6 mph42%29.98 "HgN/A
10:30 PM81 °FPassing clouds.6 mph42%29.98 "HgN/A
10:00 PM82 °FPassing clouds.7 mph40%29.95 "HgN/A
9:30 PM84 °FPassing clouds.9 mph35%29.95 "HgN/A
9:00 PM88 °FPassing clouds.10 mph31%29.95 "HgN/A
8:30 PM95 °FPassing clouds.5 mph16%29.92 "HgN/A
8:00 PM95 °FPassing clouds.5 mph16%29.92 "HgN/A
7:30 PM97 °FPassing clouds.6 mph16%29.92 "HgN/A
7:00 PM97 °FSunny.3 mph16%29.92 "Hg10 mi
6:30 PM97 °FPassing clouds.5 mph17%29.92 "HgN/A
6:00 PM97 °FPassing clouds.6 mph18%29.92 "HgN/A
5:30 PM95 °FScattered clouds.3 mph22%29.95 "HgN/A
5:00 PM95 °FScattered clouds.3 mph20%29.95 "HgN/A
4:30 PM95 °FScattered clouds.5 mph20%29.95 "HgN/A
4:00 PM93 °FScattered clouds.3 mph23%29.95 "HgN/A
3:30 PM90 °FScattered clouds.5 mph27%29.95 "HgN/A
3:00 PM90 °FScattered clouds.2 mph27%29.98 "HgN/A
2:30 PM86 °FScattered clouds.3 mph31%29.98 "HgN/A
2:00 PM82 °FScattered clouds.6 mph40%29.98 "HgN/A
1:30 PM82 °FScattered clouds.3 mph40%30.01 "HgN/A
1:00 PM82 °FScattered clouds.7 mph42%30.01 "HgN/A
12:30 PM79 °FScattered clouds.9 mph48%30.01 "HgN/A
12:00 PM79 °FScattered clouds.10 mph48%30.01 "HgN/A
11:30 AM79 °FBroken clouds.7 mph48%30.01 "HgN/A
11:00 AM77 °FBroken clouds.7 mph47%30.01 "HgN/A
10:30 AM77 °FBroken clouds.8 mph51%29.98 "HgN/A
10:00 AM75 °FBroken clouds.3 mph54%29.98 "HgN/A
9:30 AM73 °FBroken clouds.2 mph57%29.98 "HgN/A
9:00 AM72 °FBroken clouds.12 mph57%29.95 "HgN/A
8:30 AM70 °FBroken clouds.7 mph69%29.98 "HgN/A
8:00 AM70 °FScattered clouds.9 mph69%30.01 "HgN/A
7:30 AM68 °FSunny.7 mph73%29.98 "Hg10 mi
7:00 AM70 °FSunny.10 mph64%29.98 "Hg10 mi
6:30 AM70 °FClear.8 mph64%29.98 "Hg10 mi
6:00 AM70 °FClear.3 mph64%29.95 "Hg10 mi
5:30 AM72 °FClear.3 mph61%29.95 "Hg10 mi
5:00 AM72 °FPassing clouds.3 mph61%29.98 "HgN/A
Weather by CustomWeather, © 2016

See weather overviewHow to use our weather pages